SCP
0 0 0 0 0 -0 -0 -0 0 0 -0 0 -0 -0 0 -0 0 0 0 -0 -0 -0 -0 -0 -0 -0 -0 -0 -0 -0 -0 -0 -0 -0 -0 -0 -0 -0 -0 -0 0 0 -0 -0 -0 -0 0 0 0
0 0 0 0 0 0 -0 0 0 0 0 -0 -0 0 -0 0 0 -0 -0 -0 -0 -0 -0 -0 -0 -0 -0 -0 -0 -0 -0 -0 -0 -0 -0 -0 -0 -0 -0 0 0 -0 0 0 0 0 0 0 0
0 0 0 0 0 0 0 -0 -0 -0 -0 0 -0 0 -0 -0 0 0 -0 -0 -0 -0 -0 -0 -0 -0 -0 -0 -0 -0 -0 -0 -0 -0 -0 -0 -0 -0 -0 0 0 0 0 0 0 0 0 0 0
0 0 -0 -0 0 0 0 -0 -0 0 0 0 -0 0 0 -0 -0 -0 -0 -0 -0 -0 -0 -0 -0 -0 -0 -0 -0 -0 -0 -0 -0 -0 -0 -0 -0 -0 0 0 0 0 0 0 0 0 0 0 0
-0 -0 -0 0 0 0 0 -0 0 -0 -0 0 -0 0 -0 0 -0 -0 -0 -0 -0 -0 -0 -0 -0 -0 -0 -0 -0 -0 -0 -0 -0 -0 -0 -0 -0 -0 0 0 0 0 0 0 0 0 0 0 0
0 0 -0 -0 0 0 0 0 0 -0 0 0 -0 -0 0 0 0 -0 -0 -0 -0 -0 -0 -0 -0 -0 -0 -0 -0 -0 -0 -0 -0 -0 -0 -0 -0 0 0 0 0 0 0 0 0 0 0 0 0
0 -0 0 0 0 0 0 0 0 0 0 0 0 -0 0 0 -0 -0 -0 -0 -0 -0 -0 -0 -0 -0 -0 -0 -0 -0 0 0 0 0 0 0 0 0 0 -0 -0 -0 -0 -0 -0 0 0 0 0
0 0 -0 -0 -0 0 0 0 0 0 0 0 -0 0 0 0 -0 -0 -0 -0 -0 -0 -0 -0 -0 -0 -0 -0 -0 -0 0 0 0 0 0 0 0 0 -0 -0 -0 -0 -0 -0 -0 -0 -0 0 0
0 -0 -0 -0 -0 0 0 0 0 0 0 0 0 0 0 -0 -0 -0 -0 -0 -0 -0 -0 -0 -0 -0 0 -0 -0 0 0 0 0 0 0 0 0 0 0 0 0 -0 -0 -0 -0 -0 -0 -0 0
-0 -0 0 0 0 0 0 0 0 0 0 0 0 0 0 0 -0 -0 -0 -0 -0 -1 -0 -0 -0 -0 0 0 0 0 0 0 0 0 0 0 0 0 -0 0 0 -0 -0 -0 -0 -0 0 0 0
0 -0 0 0 0 0 0 0 0 0 0 0 0 0 0 0 -0 -0 -0 -0 -0 -0 -0 -0 -0 -0 0 0 0 0 0 0 0 0 0 0 0 0 0 0 0 0 0 0 0 0 0 0 -0
0 0 0 0 0 0 0 0 0 0 0 0 0 0 0 0 -0 -0 -0 -0 -0 -0 -0 -0 -0 -0 -0 0 0 0 0 0 0 0 0 0 0 0 0 0 0 0 0 0 0 0 0 0 0
0 0 0 0 0 0 0 0 0 0 0 0 0 0 -0 0 0 0 0 0 0 0 0 0 0 0 0 0 0 0 0 0 0 0 0 0 0 0 0 0 0 0 0 0 0 0 0 0 0
0 0 0 0 0 0 0 0 -0 0 0 0 0 -0 0 0 0 0 0 0 0 0 0 0 0 0 0 0 0 0 0 0 0 0 0 0 0 0 0 0 0 0 0 0 0 0 0 0 0
0 0 0 0 0 0 0 0 0 0 0 0 0 0 0 -0 -0 -0 -0 -0 -0 0 0 0 0 0 0 0 0 0 0 0 0 0 0 0 0 0 0 0 0 0 0 0 0 0 0 0 0
0 0 0 0 0 0 0 0 0 0 0 0 0 0 0 0 0 0 0 0 0 0 0 0 0 0 0 0 0 0 0 0 0 0 0 0 0 0 0 0 0 0 0 0 0 0 0 0 0
0 0 0 0 0 0 0 0 0 0 0 0 0 0 0 0 1 1 1 1 1 0 0 0 0 0 1 1 1 1 1 1 1 0 0 0 0 0 0 0 0 0 0 0 0 0 1 0 0
0 0 0 0 0 0 0 0 0 0 0 0 0 0 0 0 0 0 1 1 1 1 1 0 0 1 1 1 1 1 1 1 1 1 0 0 0 0 0 0 0 0 0 0 0 1 0 0 0
0 0 0 0 0 0 0 0 0 0 0 0 0 0 1 1 1 1 1 1 1 1 0 1 0 0 0 0 0 1 1 1 1 1 1 1 1 1 0 0 0 0 1 1 1 1 0 0 0
0 0 0 0 0 0 0 0 0 0 0 0 0 0 0 0 0 0 0 0 0 0 1 1 1 -0 -0 0 0 1 2 3 6 6 5 4 3 3 2 1 1 1 1 1 1 1 1 0 0
0 0 0 0 0 0 0 0 0 0 0 0 0 0 0 0 0 0 0 0 0 0 0 1 1 1 1 1 1 1 5 4 3 3 2 1 1 1 3 1 1 1 2 1 1 1 1 1 1
0 0 0 0 0 0 0 0 0 0 0 0 0 0 0 0 0 0 0 0 0 0 0 0 0 0 1 2 2 3 2 2 2 1 2 1 1 1 2 2 1 0 0 0 1 1 1 1 1
0 0 0 0 0 0 0 0 0 0 0 0 0 0 0 0 0 0 0 0 0 0 0 0 0 0 0 0 1 1 1 1 1 1 1 1 0 0 0 0 1 0 1 0 0 -0 -0 0 -0
0 0 0 0 0 0 0 0 0 0 0 0 0 0 0 0 0 0 0 0 0 0 0 0 0 -0 -0 0 0 0 0 0 0 0 0 0 0 0 0 0 0 1 1 0 -0 -0 -0 -0 -0
0 0 0 0 0 0 0 0 0 0 0 0 0 0 0 0 0 0 0 0 0 0 0 0 -0 -0 -0 -0 -0 -0 -0 -0 0 0 0 0 0 0 0 0 0 0 0 0 0 -0 -0 -0 -0
0 0 0 0 0 0 0 0 0 0 0 0 0 0 0 0 0 0 0 0 0 0 0 0 0 0 0 -0 -0 -0 -0 0 0 0 0 0 0 0 0 0 0 0 0 0 0 0 0 0 0
0 0 0 0 0 0 0 0 0 0 0 0 0 0 0 0 0 0 0 0 0 0 0 0 0 0 0 0 0 0 0 0 0 0 0 0 0 0 0 0 0 0 0 0 0 0 0 0 0
0 0 0 0 0 0 0 0 0 0 0 0 0 0 0 0 0 0 0 0 0 0 0 0 0 0 0 0 0 0 0 0 0 0 0 0 0 0 0 0 0 0 0 0 0 0 0 0 0
0 0 0 0 0 0 0 0 0 0 0 0 0 0 0 0 0 0 0 0 0 0 0 0 0 0 0 0 0 0 0 0 0 0 0 0 0 0 0 0 0 0 0 0 0 0 0 0 0
0 0 0 0 0 0 0 0 0 0 0 0 0 0 0 0 0 0 0 0 0 0 0 0 0 0 0 0 0 0 0 0 0 0 0 0 0 0 0 0 0 0 0 0 0 0 0 0 0
Wind_Speed_500mb
14 19 17 9 12 9 14 14 5 13 6 9 8 3 13 8 14 9 9 28 42 44 43 40 37 37 36 36 33 30 27 26 24 22 23 26 28 30 33 35 37 38 38 37 36 37 38 38 39
10 14 12 15 11 13 16 12 18 15 8 4 9 6 2 11 8 3 19 35 46 45 44 42 38 36 35 33 31 29 27 26 25 22 23 24 26 27 29 30 32 34 35 35 34 34 34 34 34
8 10 13 9 5 17 12 21 19 12 7 15 10 4 8 8 7 7 10 45 47 42 42 41 38 35 33 31 30 28 27 26 24 22 22 22 23 24 26 26 27 30 30 30 29 29 29 29 31
8 8 12 12 11 16 14 19 18 13 13 9 6 13 7 8 5 5 31 47 45 40 38 38 35 33 31 30 28 28 26 25 23 22 20 20 21 21 22 22 23 24 25 24 23 22 21 23 23
6 12 9 8 12 11 16 21 5 11 15 15 4 11 7 5 8 17 44 44 41 40 36 38 35 32 30 28 27 26 25 24 23 22 20 19 19 19 19 20 19 19 19 17 16 16 16 14 12
16 11 12 15 15 11 18 20 6 12 13 14 11 8 10 6 14 28 38 39 38 37 36 40 38 33 29 27 24 23 22 21 21 20 19 18 17 16 15 16 15 14 14 12 11 10 9 8 7
23 14 5 9 14 15 15 17 11 6 12 11 5 3 8 14 19 33 34 36 37 36 35 36 40 36 31 27 25 23 21 21 20 20 19 17 17 15 15 14 14 13 12 10 8 6 4 2 1
12 15 11 7 12 17 14 13 11 3 10 2 3 6 12 17 25 33 30 33 36 35 34 32 35 36 33 30 28 24 22 22 21 21 20 19 18 17 15 14 13 13 13 11 8 5 3 3 6
7 13 15 11 14 8 9 11 13 6 3 5 7 2 4 19 27 32 33 34 36 37 36 33 34 34 32 29 30 28 27 24 23 23 22 21 17 18 16 17 17 14 12 11 9 8 6 7 6
17 15 3 5 6 5 7 9 10 5 6 11 9 2 7 19 28 33 36 38 39 39 40 38 36 36 33 30 29 31 29 28 27 26 24 23 20 20 20 21 18 15 12 9 8 6 5 4 5
9 15 10 11 1 8 10 9 2 8 9 14 10 8 9 19 28 32 32 32 36 37 40 40 38 37 33 28 25 24 24 24 27 28 26 24 21 21 23 17 17 16 11 9 12 6 4 7 6
15 7 8 7 3 7 9 6 8 6 17 12 10 9 10 19 28 29 31 30 31 35 37 40 40 43 40 31 30 28 27 26 25 29 30 29 26 23 20 19 18 18 16 15 12 9 14 9 9
16 12 9 11 7 6 5 6 3 5 18 14 10 6 9 15 23 26 29 29 28 28 29 32 35 36 40 44 27 26 25 25 22 23 28 25 23 23 22 22 20 20 19 18 15 16 16 16 17
10 10 11 11 8 8 12 6 9 16 18 7 6 10 13 15 18 24 24 19 18 21 23 26 33 34 32 32 31 24 25 24 24 23 23 30 25 24 21 22 20 23 23 22 21 21 22 21 22
10 18 17 18 15 9 8 20 9 15 10 9 11 11 14 19 17 15 13 16 18 19 22 25 29 30 34 32 31 29 25 23 24 24 26 30 32 31 29 24 24 25 26 28 29 27 26 29 26
16 14 20 18 19 10 15 23 12 12 11 16 19 21 17 9 11 10 13 14 15 17 19 26 23 26 33 32 28 24 25 25 25 24 24 32 33 34 34 30 29 30 35 33 30 28 26 29 29
15 13 15 20 13 0 15 18 13 8 10 15 22 27 27 14 7 4 7 11 13 13 18 22 28 28 29 35 29 26 26 25 25 25 27 33 33 31 33 31 31 39 37 33 33 31 29 28 27
16 15 14 17 19 18 16 9 11 7 8 13 18 23 27 24 17 10 7 2 6 6 17 21 20 31 34 33 36 28 23 23 23 24 23 27 30 33 35 34 36 37 32 34 34 35 30 30 27
8 13 15 11 8 13 21 11 10 10 5 8 13 20 23 24 21 19 13 5 1 5 15 19 14 23 23 24 21 21 20 19 18 18 21 22 19 26 33 33 31 39 41 41 38 39 35 31 28
18 20 19 10 9 13 16 21 15 11 8 10 10 16 19 19 22 24 21 15 9 6 8 12 18 19 14 18 21 22 20 19 30 33 31 30 32 31 26 30 32 40 41 43 36 34 33 29 25
24 23 13 17 13 19 17 27 27 19 15 14 14 14 14 16 19 22 23 22 19 15 11 6 6 6 10 14 15 19 28 35 25 26 31 30 20 24 22 36 34 44 34 41 35 26 26 31 27
26 24 20 15 18 20 14 21 29 29 24 14 13 12 12 13 15 19 21 23 24 24 19 12 6 4 9 13 14 19 18 17 17 24 24 19 16 6 12 32 45 55 52 75 48 38 43 44 44
25 12 22 21 22 25 28 17 23 23 24 23 18 16 13 13 14 17 19 21 23 25 30 28 25 22 16 6 6 10 16 19 20 17 14 24 31 39 48 61 40 49 62 60 80 75 71 52 43
9 18 18 21 26 29 34 32 22 27 26 25 23 20 17 16 17 19 21 23 26 25 26 27 29 32 28 20 14 8 6 3 6 13 18 26 38 42 45 74 75 51 63 68 77 70 71 73 58
23 23 18 21 18 25 0 15 25 17 12 21 27 26 23 20 20 22 23 24 24 22 21 22 24 25 25 26 26 27 26 25 23 21 19 14 11 12 17 24 25 28 51 61 74 67 61 61 56
39 32 23 21 21 16 15 13 11 13 20 20 25 26 25 25 24 25 24 19 18 17 15 15 16 20 21 23 23 23 24 21 21 21 19 17 16 14 12 14 19 26 21 23 33 29 30 30 40
24 23 21 31 26 23 28 18 17 20 21 26 28 30 32 31 30 30 24 23 20 11 11 11 13 14 15 16 17 19 20 21 26 31 29 20 22 21 19 17 18 22 26 22 28 23 24 22 24
23 14 16 20 28 34 22 27 20 28 33 30 32 36 35 36 35 34 29 28 17 9 8 11 10 9 10 12 14 13 13 10 13 16 21 21 21 22 22 22 21 25 31 24 27 23 22 21 17
19 28 25 21 25 27 29 23 18 24 28 32 37 38 39 40 41 39 35 31 18 7 7 11 11 14 15 11 9 8 7 11 18 19 22 25 28 32 34 34 36 32 31 29 28 28 25 23 20
24 32 40 25 35 22 26 28 7 8 9 21 31 38 40 41 41 40 38 35 24 13 15 17 17 14 13 9 2 4 11 12 17 22 27 32 37 43 48 47 44 41 36 38 33 30 30 25 25
Wind_Direction_500mb
347 332 332 291 232 234 114 76 351 17 53 36 115 214 24 338 353 15 143 160 164 162 169 166 165 161 161 164 163 159 154 148 141 131 119 107 100 100 102 102 101 100 100 102 98 96 95 92 89
359 329 302 272 253 178 95 32 18 6 333 210 145 203 332 63 31 81 139 165 162 165 171 170 167 163 163 162 161 160 157 153 145 135 123 113 105 102 104 104 101 99 97 98 97 96 94 93 92
11 334 278 299 306 50 38 16 1 352 119 159 135 269 14 33 12 147 167 159 160 162 169 172 168 166 165 164 162 163 162 157 149 140 130 120 113 108 108 105 102 99 99 97 96 96 96 95 92
325 275 241 238 72 61 17 360 355 140 136 147 90 97 86 50 42 155 155 159 162 164 167 172 170 170 170 166 165 166 165 159 156 148 137 131 126 121 115 112 108 105 103 102 99 98 101 99 94
281 257 215 126 91 54 28 7 352 185 140 141 202 103 74 37 53 133 153 161 164 168 169 174 174 176 175 172 172 172 169 165 162 157 149 146 139 132 129 122 113 109 111 111 108 107 106 100 94
240 271 219 166 110 78 55 13 119 189 158 136 129 118 82 117 118 147 158 163 169 174 172 181 179 180 181 180 179 179 177 174 171 167 163 156 151 149 141 133 127 126 125 125 122 118 112 100 84
272 257 11 131 116 94 31 12 35 193 161 134 82 161 106 153 154 159 164 171 177 179 174 183 185 185 185 188 187 186 185 185 181 177 174 170 166 166 163 156 155 154 154 156 156 145 135 124 14
264 268 208 209 176 89 32 19 49 180 124 137 213 165 136 181 175 166 172 179 184 186 182 183 182 189 193 195 192 193 193 194 191 189 184 183 180 176 179 179 180 178 183 185 194 215 227 268 303
232 247 228 142 202 91 39 2 60 50 148 190 173 106 101 160 171 172 180 185 188 193 192 189 188 192 189 196 201 199 201 199 200 200 197 194 190 192 191 191 197 191 198 203 212 232 255 281 308
242 252 132 50 61 330 330 335 355 245 136 152 172 164 163 172 179 185 187 191 194 196 197 197 195 197 193 197 204 204 208 208 207 207 208 200 200 202 198 216 208 201 202 213 223 240 264 348 334
187 268 133 151 347 316 309 253 312 272 208 48 11 36 200 192 193 196 199 199 201 203 202 201 201 202 198 203 206 203 208 207 212 213 215 204 215 219 208 219 222 218 225 227 270 261 304 249 239
212 171 190 135 162 294 287 306 217 251 23 339 314 317 216 206 204 203 204 204 202 202 205 206 207 210 204 207 211 210 209 214 214 221 224 217 215 219 212 219 221 219 218 219 216 239 239 240 250
230 177 193 209 232 267 277 222 332 50 344 322 300 290 248 233 216 212 208 209 208 206 213 211 210 215 217 214 217 217 220 228 230 229 234 220 223 226 224 226 220 221 222 227 229 244 254 255 263
160 216 230 226 223 172 253 162 217 24 347 346 303 270 256 250 232 223 219 221 215 215 216 213 212 218 221 223 223 228 231 229 232 234 234 236 231 239 234 239 236 231 231 237 244 252 251 263 263
190 241 200 211 190 163 241 179 74 1 3 11 356 327 279 252 249 252 244 241 235 232 214 212 209 215 228 228 238 238 236 243 237 234 243 243 245 247 242 242 240 241 241 243 247 251 260 264 264
225 237 205 146 190 159 215 158 85 22 21 25 17 10 354 280 257 256 239 242 231 224 220 221 213 218 236 235 234 235 236 236 234 238 240 252 251 252 255 249 248 242 242 243 245 247 255 259 262
198 193 224 164 185 175 226 141 100 40 40 41 31 30 33 49 78 23 256 241 223 239 241 240 238 226 225 246 242 236 234 237 232 236 245 264 261 254 258 251 252 251 251 247 246 248 252 259 265
176 195 199 212 179 223 221 202 126 82 64 54 43 41 46 50 35 22 40 166 227 232 250 248 250 240 242 240 248 240 230 232 233 237 243 260 263 257 258 251 248 252 253 251 252 252 254 259 260
225 233 229 202 177 244 236 242 156 138 112 76 53 44 47 47 45 49 55 81 114 257 272 260 245 251 257 240 221 219 222 215 215 220 232 237 247 259 271 270 265 265 254 249 247 259 264 262 270
216 222 218 216 184 244 208 233 173 153 120 86 64 56 50 48 49 52 49 47 30 344 293 279 277 277 264 236 225 212 195 193 189 194 204 218 236 242 252 267 268 270 261 255 249 259 263 265 270
217 230 216 253 173 232 257 243 194 168 148 120 83 78 63 60 59 60 61 57 60 64 76 64 83 125 182 191 191 180 186 208 205 210 222 216 212 229 249 264 251 247 271 271 266 263 261 264 258
233 211 233 228 239 253 192 271 177 173 169 161 127 110 94 84 85 81 77 71 63 60 57 48 5 258 205 183 176 193 199 193 203 208 216 237 222 268 286 302 291 294 285 296 310 294 279 271 275
244 172 226 232 249 263 240 243 262 171 193 173 155 139 127 113 111 108 97 88 86 81 76 68 64 62 61 84 135 146 168 178 196 220 259 275 281 278 292 299 291 292 293 262 285 282 276 269 270
167 197 227 243 251 243 242 248 252 190 215 158 160 152 149 143 129 126 117 108 102 92 82 78 72 73 74 71 70 72 66 12 290 279 282 278 282 273 261 261 265 273 260 266 269 267 267 271 267
208 224 234 217 212 247 315 243 242 101 135 169 166 161 163 161 153 144 135 125 115 101 90 83 83 78 76 77 76 74 69 67 59 57 45 19 312 296 277 257 272 257 246 251 261 267 268 269 269
206 224 249 262 257 244 142 234 225 140 151 157 161 165 167 173 169 164 154 145 132 113 96 86 88 92 88 85 83 77 76 70 61 60 59 44 40 30 10 351 337 326 308 279 278 290 285 267 269
210 226 262 276 263 266 269 242 167 167 177 176 174 176 181 184 184 179 173 159 145 124 111 111 112 106 99 87 83 79 75 79 64 46 40 30 24 19 12 356 341 343 321 321 301 302 303 302 294
255 246 214 223 257 257 256 252 276 181 197 190 190 191 189 190 190 188 183 171 162 146 128 129 125 111 104 95 85 76 67 48 13 359 348 354 357 350 343 334 334 330 321 322 309 303 298 303 296
195 231 234 278 269 272 268 261 183 200 197 198 204 197 192 193 194 193 192 190 186 179 185 165 144 134 126 115 99 70 28 347 344 348 347 342 336 332 326 325 327 330 320 313 307 302 300 295 296
283 257 229 229 245 238 271 274 115 158 202 212 200 196 197 199 196 197 199 200 204 215 196 178 169 167 172 145 103 330 326 319 322 326 326 326 321 319 317 313 312 315 313 303 302 298 291 294 296
Wind_Speed_850mb
14 19 17 9 12 9 14 14 5 13 6 9 8 3 13 8 14 9 9 28 42 44 43 40 37 37 36 36 33 30 27 26 24 22 23 26 28 30 33 35 37 38 38 37 36 37 38 38 39
10 14 12 15 11 13 16 12 18 15 8 4 9 6 2 11 8 3 19 35 46 45 44 42 38 36 35 33 31 29 27 26 25 22 23 24 26 27 29 30 32 34 35 35 34 34 34 34 34
8 10 13 9 5 17 12 21 19 12 7 15 10 4 8 8 7 7 10 45 47 42 42 41 38 35 33 31 30 28 27 26 24 22 22 22 23 24 26 26 27 30 30 30 29 29 29 29 31
8 8 12 12 11 16 14 19 18 13 13 9 6 13 7 8 5 5 31 47 45 40 38 38 35 33 31 30 28 28 26 25 23 22 20 20 21 21 22 22 23 24 25 24 23 22 21 23 23
6 12 9 8 12 11 16 21 5 11 15 15 4 11 7 5 8 17 44 44 41 40 36 38 35 32 30 28 27 26 25 24 23 22 20 19 19 19 19 20 19 19 19 17 16 16 16 14 12
16 11 12 15 15 11 18 20 6 12 13 14 11 8 10 6 14 28 38 39 38 37 36 40 38 33 29 27 24 23 22 21 21 20 19 18 17 16 15 16 15 14 14 12 11 10 9 8 7
23 14 5 9 14 15 15 17 11 6 12 11 5 3 8 14 19 33 34 36 37 36 35 36 40 36 31 27 25 23 21 21 20 20 19 17 17 15 15 14 14 13 12 10 8 6 4 2 1
12 15 11 7 12 17 14 13 11 3 10 2 3 6 12 17 25 33 30 33 36 35 34 32 35 36 33 30 28 24 22 22 21 21 20 19 18 17 15 14 13 13 13 11 8 5 3 3 6
7 13 15 11 14 8 9 11 13 6 3 5 7 2 4 19 27 32 33 34 36 37 36 33 34 34 32 29 30 28 27 24 23 23 22 21 17 18 16 17 17 14 12 11 9 8 6 7 6
17 15 3 5 6 5 7 9 10 5 6 11 9 2 7 19 28 33 36 38 39 39 40 38 36 36 33 30 29 31 29 28 27 26 24 23 20 20 20 21 18 15 12 9 8 6 5 4 5
9 15 10 11 1 8 10 9 2 8 9 14 10 8 9 19 28 32 32 32 36 37 40 40 38 37 33 28 25 24 24 24 27 28 26 24 21 21 23 17 17 16 11 9 12 6 4 7 6
15 7 8 7 3 7 9 6 8 6 17 12 10 9 10 19 28 29 31 30 31 35 37 40 40 43 40 31 30 28 27 26 25 29 30 29 26 23 20 19 18 18 16 15 12 9 14 9 9
16 12 9 11 7 6 5 6 3 5 18 14 10 6 9 15 23 26 29 29 28 28 29 32 35 36 40 44 27 26 25 25 22 23 28 25 23 23 22 22 20 20 19 18 15 16 16 16 17
10 10 11 11 8 8 12 6 9 16 18 7 6 10 13 15 18 24 24 19 18 21 23 26 33 34 32 32 31 24 25 24 24 23 23 30 25 24 21 22 20 23 23 22 21 21 22 21 22
10 18 17 18 15 9 8 20 9 15 10 9 11 11 14 19 17 15 13 16 18 19 22 25 29 30 34 32 31 29 25 23 24 24 26 30 32 31 29 24 24 25 26 28 29 27 26 29 26
16 14 20 18 19 10 15 23 12 12 11 16 19 21 17 9 11 10 13 14 15 17 19 26 23 26 33 32 28 24 25 25 25 24 24 32 33 34 34 30 29 30 35 33 30 28 26 29 29
15 13 15 20 13 0 15 18 13 8 10 15 22 27 27 14 7 4 7 11 13 13 18 22 28 28 29 35 29 26 26 25 25 25 27 33 33 31 33 31 31 39 37 33 33 31 29 28 27
16 15 14 17 19 18 16 9 11 7 8 13 18 23 27 24 17 10 7 2 6 6 17 21 20 31 34 33 36 28 23 23 23 24 23 27 30 33 35 34 36 37 32 34 34 35 30 30 27
8 13 15 11 8 13 21 11 10 10 5 8 13 20 23 24 21 19 13 5 1 5 15 19 14 23 23 24 21 21 20 19 18 18 21 22 19 26 33 33 31 39 41 41 38 39 35 31 28
18 20 19 10 9 13 16 21 15 11 8 10 10 16 19 19 22 24 21 15 9 6 8 12 18 19 14 18 21 22 20 19 30 33 31 30 32 31 26 30 32 40 41 43 36 34 33 29 25
24 23 13 17 13 19 17 27 27 19 15 14 14 14 14 16 19 22 23 22 19 15 11 6 6 6 10 14 15 19 28 35 25 26 31 30 20 24 22 36 34 44 34 41 35 26 26 31 27
26 24 20 15 18 20 14 21 29 29 24 14 13 12 12 13 15 19 21 23 24 24 19 12 6 4 9 13 14 19 18 17 17 24 24 19 16 6 12 32 45 55 52 75 48 38 43 44 44
25 12 22 21 22 25 28 17 23 23 24 23 18 16 13 13 14 17 19 21 23 25 30 28 25 22 16 6 6 10 16 19 20 17 14 24 31 39 48 61 40 49 62 60 80 75 71 52 43
9 18 18 21 26 29 34 32 22 27 26 25 23 20 17 16 17 19 21 23 26 25 26 27 29 32 28 20 14 8 6 3 6 13 18 26 38 42 45 74 75 51 63 68 77 70 71 73 58
23 23 18 21 18 25 0 15 25 17 12 21 27 26 23 20 20 22 23 24 24 22 21 22 24 25 25 26 26 27 26 25 23 21 19 14 11 12 17 24 25 28 51 61 74 67 61 61 56
39 32 23 21 21 16 15 13 11 13 20 20 25 26 25 25 24 25 24 19 18 17 15 15 16 20 21 23 23 23 24 21 21 21 19 17 16 14 12 14 19 26 21 23 33 29 30 30 40
24 23 21 31 26 23 28 18 17 20 21 26 28 30 32 31 30 30 24 23 20 11 11 11 13 14 15 16 17 19 20 21 26 31 29 20 22 21 19 17 18 22 26 22 28 23 24 22 24
23 14 16 20 28 34 22 27 20 28 33 30 32 36 35 36 35 34 29 28 17 9 8 11 10 9 10 12 14 13 13 10 13 16 21 21 21 22 22 22 21 25 31 24 27 23 22 21 17
19 28 25 21 25 27 29 23 18 24 28 32 37 38 39 40 41 39 35 31 18 7 7 11 11 14 15 11 9 8 7 11 18 19 22 25 28 32 34 34 36 32 31 29 28 28 25 23 20
24 32 40 25 35 22 26 28 7 8 9 21 31 38 40 41 41 40 38 35 24 13 15 17 17 14 13 9 2 4 11 12 17 22 27 32 37 43 48 47 44 41 36 38 33 30 30 25 25
Wind_Direction_850mb
347 332 332 291 232 234 114 76 351 17 53 36 115 214 24 338 353 15 143 160 164 162 169 166 165 161 161 164 163 159 154 148 141 131 119 107 100 100 102 102 101 100 100 102 98 96 95 92 89
359 329 302 272 253 178 95 32 18 6 333 210 145 203 332 63 31 81 139 165 162 165 171 170 167 163 163 162 161 160 157 153 145 135 123 113 105 102 104 104 101 99 97 98 97 96 94 93 92
11 334 278 299 306 50 38 16 1 352 119 159 135 269 14 33 12 147 167 159 160 162 169 172 168 166 165 164 162 163 162 157 149 140 130 120 113 108 108 105 102 99 99 97 96 96 96 95 92
325 275 241 238 72 61 17 360 355 140 136 147 90 97 86 50 42 155 155 159 162 164 167 172 170 170 170 166 165 166 165 159 156 148 137 131 126 121 115 112 108 105 103 102 99 98 101 99 94
281 257 215 126 91 54 28 7 352 185 140 141 202 103 74 37 53 133 153 161 164 168 169 174 174 176 175 172 172 172 169 165 162 157 149 146 139 132 129 122 113 109 111 111 108 107 106 100 94
240 271 219 166 110 78 55 13 119 189 158 136 129 118 82 117 118 147 158 163 169 174 172 181 179 180 181 180 179 179 177 174 171 167 163 156 151 149 141 133 127 126 125 125 122 118 112 100 84
272 257 11 131 116 94 31 12 35 193 161 134 82 161 106 153 154 159 164 171 177 179 174 183 185 185 185 188 187 186 185 185 181 177 174 170 166 166 163 156 155 154 154 156 156 145 135 124 14
264 268 208 209 176 89 32 19 49 180 124 137 213 165 136 181 175 166 172 179 184 186 182 183 182 189 193 195 192 193 193 194 191 189 184 183 180 176 179 179 180 178 183 185 194 215 227 268 303
232 247 228 142 202 91 39 2 60 50 148 190 173 106 101 160 171 172 180 185 188 193 192 189 188 192 189 196 201 199 201 199 200 200 197 194 190 192 191 191 197 191 198 203 212 232 255 281 308
242 252 132 50 61 330 330 335 355 245 136 152 172 164 163 172 179 185 187 191 194 196 197 197 195 197 193 197 204 204 208 208 207 207 208 200 200 202 198 216 208 201 202 213 223 240 264 348 334
187 268 133 151 347 316 309 253 312 272 208 48 11 36 200 192 193 196 199 199 201 203 202 201 201 202 198 203 206 203 208 207 212 213 215 204 215 219 208 219 222 218 225 227 270 261 304 249 239
212 171 190 135 162 294 287 306 217 251 23 339 314 317 216 206 204 203 204 204 202 202 205 206 207 210 204 207 211 210 209 214 214 221 224 217 215 219 212 219 221 219 218 219 216 239 239 240 250
230 177 193 209 232 267 277 222 332 50 344 322 300 290 248 233 216 212 208 209 208 206 213 211 210 215 217 214 217 217 220 228 230 229 234 220 223 226 224 226 220 221 222 227 229 244 254 255 263
160 216 230 226 223 172 253 162 217 24 347 346 303 270 256 250 232 223 219 221 215 215 216 213 212 218 221 223 223 228 231 229 232 234 234 236 231 239 234 239 236 231 231 237 244 252 251 263 263
190 241 200 211 190 163 241 179 74 1 3 11 356 327 279 252 249 252 244 241 235 232 214 212 209 215 228 228 238 238 236 243 237 234 243 243 245 247 242 242 240 241 241 243 247 251 260 264 264
225 237 205 146 190 159 215 158 85 22 21 25 17 10 354 280 257 256 239 242 231 224 220 221 213 218 236 235 234 235 236 236 234 238 240 252 251 252 255 249 248 242 242 243 245 247 255 259 262
198 193 224 164 185 175 226 141 100 40 40 41 31 30 33 49 78 23 256 241 223 239 241 240 238 226 225 246 242 236 234 237 232 236 245 264 261 254 258 251 252 251 251 247 246 248 252 259 265
176 195 199 212 179 223 221 202 126 82 64 54 43 41 46 50 35 22 40 166 227 232 250 248 250 240 242 240 248 240 230 232 233 237 243 260 263 257 258 251 248 252 253 251 252 252 254 259 260
225 233 229 202 177 244 236 242 156 138 112 76 53 44 47 47 45 49 55 81 114 257 272 260 245 251 257 240 221 219 222 215 215 220 232 237 247 259 271 270 265 265 254 249 247 259 264 262 270
216 222 218 216 184 244 208 233 173 153 120 86 64 56 50 48 49 52 49 47 30 344 293 279 277 277 264 236 225 212 195 193 189 194 204 218 236 242 252 267 268 270 261 255 249 259 263 265 270
217 230 216 253 173 232 257 243 194 168 148 120 83 78 63 60 59 60 61 57 60 64 76 64 83 125 182 191 191 180 186 208 205 210 222 216 212 229 249 264 251 247 271 271 266 263 261 264 258
233 211 233 228 239 253 192 271 177 173 169 161 127 110 94 84 85 81 77 71 63 60 57 48 5 258 205 183 176 193 199 193 203 208 216 237 222 268 286 302 291 294 285 296 310 294 279 271 275
244 172 226 232 249 263 240 243 262 171 193 173 155 139 127 113 111 108 97 88 86 81 76 68 64 62 61 84 135 146 168 178 196 220 259 275 281 278 292 299 291 292 293 262 285 282 276 269 270
167 197 227 243 251 243 242 248 252 190 215 158 160 152 149 143 129 126 117 108 102 92 82 78 72 73 74 71 70 72 66 12 290 279 282 278 282 273 261 261 265 273 260 266 269 267 267 271 267
208 224 234 217 212 247 315 243 242 101 135 169 166 161 163 161 153 144 135 125 115 101 90 83 83 78 76 77 76 74 69 67 59 57 45 19 312 296 277 257 272 257 246 251 261 267 268 269 269
206 224 249 262 257 244 142 234 225 140 151 157 161 165 167 173 169 164 154 145 132 113 96 86 88 92 88 85 83 77 76 70 61 60 59 44 40 30 10 351 337 326 308 279 278 290 285 267 269
210 226 262 276 263 266 269 242 167 167 177 176 174 176 181 184 184 179 173 159 145 124 111 111 112 106 99 87 83 79 75 79 64 46 40 30 24 19 12 356 341 343 321 321 301 302 303 302 294
255 246 214 223 257 257 256 252 276 181 197 190 190 191 189 190 190 188 183 171 162 146 128 129 125 111 104 95 85 76 67 48 13 359 348 354 357 350 343 334 334 330 321 322 309 303 298 303 296
195 231 234 278 269 272 268 261 183 200 197 198 204 197 192 193 194 193 192 190 186 179 185 165 144 134 126 115 99 70 28 347 344 348 347 342 336 332 326 325 327 330 320 313 307 302 300 295 296
283 257 229 229 245 238 271 274 115 158 202 212 200 196 197 199 196 197 199 200 204 215 196 178 169 167 172 145 103 330 326 319 322 326 326 326 321 319 317 313 312 315 313 303 302 298 291 294 296